Regional Weather Roundup
Issued by NWS

Home | Current Version | Previous Version | Graphics & Text | Print | Product List | Glossary On
Versions: 1 2 3 4 5 6 7 8 9 10 11 12 13 14 15 16 17 18 19 20 21 22 23 24 25 26 27 28 29 30 31 32 33 34 35 36 37 38 39 40 41 42 43 44 45 46 47 48 49 50
000
ASUS45 KCYS 272210
RWRWY

WYOMING REGIONAL WEATHER ROUNDUP
NATIONAL WEATHER SERVICE CHEYENNE WY
400 PM MDT MON JUL 27 2015

NOTE:  "FAIR" INDICATES FEW OR NO CLOUDS BELOW 12,000 FEET
WITH NO SIGNIFICANT WEATHER AND/OR OBSTRUCTIONS TO VISIBILITY.

WYZ001-272300-
YELLOWSTONE NATIONAL PARK

CITY           SKY/WX    TMP DP  RH WIND       PRES   REMARKS
LK YELLOWSTONE   N/A     42  37  82 VRB3      30.13R
W YELLOWSTONE  NOT AVBL

$$
WYZ002>013-054>058-071-098>099-272300-
NORTHERN WYOMING

CITY           SKY/WX    TMP DP  RH WIND       PRES   REMARKS
JACKSON        FAIR      50  41  71 S15       30.09F
CODY           CLOUDY    64  52  63 W15G22    29.88R
GREYBULL       FAIR      87  48  25 NW25G39   29.63R
WORLAND        FAIR      91  34  13 W20G32    29.59F
SHERIDAN       FAIR      77  55  46 E6        29.68R
BUFFALO        LGT RAIN  75  56  51 N13G20    29.73F
GILLETTE       FAIR      81  54  39 MISG      29.70F THUNDER
HULETT         LGT RAIN  73  54  49 W5G24     29.75R
NEWCASTLE      TSTM      68  54  60 W15       29.77R

$$
WYZ014>020-022>026-101>103-272300-
CENTRAL WYOMING

CITY           SKY/WX    TMP DP  RH WIND       PRES   REMARKS
BIG PINEY      FAIR      64  37  36 W25G35    30.08R
PINEDALE       FAIR      55  36  47 NW16G26   30.09F
DUBOIS         DRIZZLE   46  37  71 N15G36    30.10R
LANDER         FAIR      81  36  19 W26G49    29.81R
RIVERTON       FAIR      82  31  15 S22G38    29.79R
CASPER         FAIR      80  49  33 S16       29.78F
DOUGLAS        FAIR      87  45  23 W10G18    29.79R

$$
WYZ021-027>030-104>119-272300-
SOUTHERN WYOMING

CITY           SKY/WX    TMP DP  RH WIND       PRES   REMARKS
EVANSTON       FAIR      68  33  27 W28G39    30.13R
KEMMERER       FAIR      63  34  34 W24G40    30.11F
FORT BRIDGER   PTCLDY    72  37  28 W24G37    30.12S
ROCK SPRINGS   FAIR      72  38  29 W29G41    30.03R
DIXON          FAIR      86  29  12 SW25G39   29.97F
RAWLINS        TSTM      72  47  40 S18G33    29.93R
SARATOGA       FAIR      82  28  14 SW28G46   29.98F
LARAMIE        FAIR      83  39  21 SW26G40   29.98F
CHEYENNE       FAIR      90  45  21 S20G25    29.89F
TORRINGTON     FAIR      94  62  34 SE17G26   29.70F HX  94
PINE BLUFFS    FAIR      91  46  21 S13G21    29.82F

$$



USA.gov is the U.S. government's official web portal to all federal, state and local government web resources and services.